SCP
0 0 0 0 0 0 0 0 0 0 0 0 0 0 0 0 0 0 0 0 0 0 0 0 0 0 0 0 0 0 0 0 0 0 0 0 0 0 0 0 0 0 0
0 0 0 0 0 0 0 0 0 0 0 0 0 0 0 0 0 0 0 0 0 0 0 0 0 0 0 0 0 0 0 0 0 0 0 0 0 -0 0 0 0 0 0
0 0 0 0 0 0 0 0 0 0 0 0 0 0 0 0 0 0 0 0 0 0 0 0 0 0 0 0 0 0 0 0 0 0 0 0 0 0 0 0 0 0 0
0 0 0 0 0 0 0 0 0 0 0 0 0 0 0 0 0 0 0 0 0 0 0 0 0 0 0 0 0 0 0 0 0 0 0 0 0 0 0 0 0 0 0
0 0 0 0 0 0 0 0 0 0 0 0 0 0 0 0 0 0 0 0 0 0 0 0 0 0 0 0 0 0 0 0 0 0 0 0 0 0 0 0 0 0 0
0 0 0 0 0 0 0 0 0 0 0 0 0 0 0 0 0 0 0 0 0 0 0 0 0 0 0 0 0 0 0 0 0 0 0 0 0 0 0 0 0 0 0
0 0 0 0 0 0 0 0 0 0 0 0 0 0 0 0 0 0 0 0 0 0 0 0 0 0 0 0 0 0 0 0 0 0 0 0 0 0 0 0 0 0 0
0 0 0 0 0 0 0 0 0 0 0 0 0 0 0 0 0 0 0 0 0 0 0 0 0 0 0 0 0 0 0 0 0 0 0 0 0 0 0 0 0 0 0
0 0 0 0 0 0 0 0 0 0 0 0 0 0 0 0 0 0 0 0 0 0 0 0 0 0 0 0 0 0 0 0 0 0 0 0 0 0 0 0 0 0 0
0 0 0 0 0 0 0 0 0 0 0 0 0 0 0 0 0 0 0 0 0 0 0 0 0 0 0 0 0 0 0 0 0 0 0 0 0 0 0 0 0 -0 -0
0 0 0 0 0 0 0 0 0 0 0 0 0 0 0 0 0 0 0 0 0 0 0 0 0 0 0 0 0 0 0 0 0 0 0 0 0 0 -0 -0 -0 -0 -0
0 0 0 0 0 0 0 0 0 0 0 0 0 0 0 0 0 0 0 0 0 0 0 0 0 0 0 0 0 0 0 0 0 0 0 0 -0 -0 -0 -0 -0 -0 0
0 0 0 0 0 0 0 0 0 0 0 0 0 0 0 0 0 0 0 0 0 0 0 0 0 0 0 0 0 0 0 0 0 0 0 0 0 -0 -0 0 0 0 0
0 0 0 0 0 0 0 0 0 0 0 0 0 0 0 0 0 0 0 0 0 0 0 0 0 0 0 0 0 0 0 0 0 0 0 0 0 0 0 0 0 0 0
0 0 0 0 0 0 0 0 0 0 0 0 0 0 0 0 0 0 0 0 0 0 0 0 0 0 0 0 0 0 0 0 0 0 0 0 0 0 0 0 0 0 0
0 0 0 0 0 0 0 0 0 0 0 0 0 0 0 0 0 0 0 0 0 0 0 0 0 0 0 0 0 0 0 0 0 0 0 0 0 0 0 0 0 0 0
0 0 0 0 0 0 0 0 0 0 0 0 0 0 0 0 0 0 0 0 0 0 0 0 0 0 0 0 0 0 0 0 0 0 0 0 0 0 0 0 0 0 0
0 0 0 0 0 0 0 0 0 0 0 0 0 0 0 0 0 0 0 0 0 0 0 0 0 0 0 0 0 0 0 0 0 0 0 0 0 0 0 0 0 0 0
0 0 0 0 0 0 0 0 0 0 0 0 0 0 0 0 0 0 0 0 0 0 0 0 0 0 0 0 0 0 0 0 0 0 0 0 0 0 0 0 0 0 0
0 0 0 0 0 0 0 0 0 0 0 0 0 0 0 0 0 0 0 0 0 0 0 0 0 0 0 0 0 0 0 0 0 0 0 0 0 0 0 0 0 0 0
0 0 0 0 0 0 0 0 0 0 0 0 0 0 0 0 0 0 0 0 0 0 0 0 0 0 0 0 0 0 0 0 0 0 0 0 0 0 0 0 0 0 0
0 0 0 0 0 0 0 0 0 0 0 0 0 0 0 0 0 0 0 0 0 0 0 0 0 0 0 0 0 0 0 0 0 0 0 0 0 0 0 0 0 0 0
0 0 0 0 0 0 0 0 0 0 0 0 0 0 0 0 0 0 0 0 0 0 0 0 0 0 0 0 0 0 0 0 0 0 0 0 0 0 0 0 0 0 0
0 0 0 0 0 0 0 0 0 0 0 0 0 0 0 0 0 0 0 0 0 0 0 0 0 0 0 0 0 0 0 0 0 0 0 0 0 0 0 0 0 0 0
0 0 0 0 0 0 0 0 0 0 0 0 0 0 0 0 0 0 0 0 0 0 0 0 0 0 0 0 0 0 0 0 0 0 0 0 0 0 0 0 0 0 0
0 0 0 0 0 0 0 0 0 0 0 0 0 0 0 0 0 0 0 0 0 0 0 0 0 0 0 0 0 0 0 0 0 0 0 0 0 0 0 0 0 0 0
Wind_Speed_500mb
47 47 39 39 36 31 26 26 27 25 24 22 19 19 19 15 17 18 19 21 15 12 14 14 15 13 9 4 3 6 7 8 7 5 3 1 5 7 9 10 10 11 11
53 51 43 41 43 39 35 34 33 30 27 22 17 20 21 15 12 13 15 19 22 20 16 11 14 12 12 15 14 11 12 13 13 10 8 4 6 7 5 4 3 4 5
54 51 47 44 40 37 38 35 30 27 24 24 22 21 20 21 16 16 20 25 26 28 28 25 24 20 19 19 17 15 17 18 15 12 9 5 3 3 6 7 4 4 2
57 54 47 42 40 39 38 34 30 28 26 27 26 25 27 29 27 24 26 29 31 29 29 26 25 26 22 23 13 9 9 14 9 12 10 5 5 8 12 12 8 3 10
57 51 48 46 42 35 38 37 33 30 27 26 27 30 35 35 33 31 28 27 28 27 24 23 23 24 24 19 18 12 2 6 10 10 10 7 8 14 16 3 12 12 7
55 52 50 44 42 37 41 39 36 32 29 27 28 29 31 34 34 31 28 26 24 23 22 22 24 21 21 9 8 8 10 9 11 9 5 8 9 9 11 22 22 20 12
41 50 53 50 40 36 37 37 37 35 31 29 29 30 29 30 30 29 26 24 21 22 22 24 21 23 25 11 2 14 8 12 13 9 8 7 13 28 33 32 31 21 10
36 40 42 49 52 44 41 35 39 36 35 33 31 32 31 30 29 27 24 21 20 19 23 23 27 28 21 4 5 17 16 19 18 13 14 23 32 32 29 25 21 18 17
33 36 33 35 46 52 49 50 47 40 38 35 33 32 31 30 28 24 21 19 20 24 27 27 29 21 7 15 20 21 18 19 16 14 27 38 31 30 26 27 18 19 16
35 33 36 34 32 46 52 53 52 44 41 37 34 32 30 29 27 24 25 25 25 24 25 26 25 12 15 22 24 25 23 20 23 30 38 34 33 28 29 29 21 29 34
41 40 39 39 37 37 43 47 45 46 43 39 34 32 29 29 27 26 26 27 22 21 21 23 16 7 21 28 31 24 28 30 36 37 37 35 27 34 33 27 20 24 28
47 42 42 41 35 36 36 38 42 45 45 40 35 32 31 30 29 27 26 26 24 20 19 19 14 19 26 31 30 33 33 38 44 37 29 26 25 24 16 29 32 29 31
48 47 48 43 40 41 37 36 40 47 46 42 37 34 32 30 28 27 25 24 25 23 15 10 22 27 31 34 35 37 35 42 41 42 34 28 20 23 31 32 35 35 35
55 54 51 45 43 44 40 39 45 51 47 43 38 36 32 30 28 26 24 25 25 17 13 20 25 26 33 38 41 36 34 34 32 25 27 17 12 32 27 31 33 32 33
58 57 55 50 46 44 41 41 43 48 46 41 39 35 33 30 28 26 26 26 25 21 20 26 30 37 36 38 40 36 36 29 26 20 17 9 19 24 26 23 28 28 29
60 58 55 54 51 48 46 46 42 45 47 39 34 33 33 32 30 29 29 28 27 25 28 32 31 40 41 42 39 37 35 41 33 27 16 14 15 13 22 21 19 24 25
63 59 58 57 54 53 52 50 50 47 48 44 37 35 36 36 33 32 31 30 30 30 34 37 42 44 44 43 46 42 43 36 29 26 18 15 17 19 25 21 18 21 22
66 63 58 58 59 60 57 53 48 48 42 42 38 39 36 37 37 35 33 32 31 33 39 45 48 49 48 48 48 44 43 36 28 25 21 21 23 22 25 22 20 21 19
67 66 63 62 64 64 61 55 50 48 49 41 43 41 37 40 40 38 35 35 33 35 42 52 54 53 51 53 51 46 37 28 23 28 24 23 25 24 19 14 18 22 18
68 69 66 67 66 67 65 61 55 52 51 46 47 50 42 46 42 40 40 40 37 39 46 54 58 57 55 52 47 40 35 35 35 32 30 29 28 24 20 15 15 12 11
65 69 72 74 73 72 74 72 64 61 48 38 45 44 48 49 45 45 45 44 41 44 48 54 58 58 60 57 51 46 44 40 39 36 34 30 28 26 22 17 16 14 12
67 69 76 77 76 75 75 73 65 57 49 48 48 47 57 53 52 49 50 46 45 47 53 55 59 63 62 62 57 48 28 36 39 37 34 32 31 27 22 20 19 17 15
63 71 75 80 77 75 75 77 70 61 59 56 55 63 66 56 51 52 51 48 47 50 54 56 59 62 66 64 57 33 18 20 39 39 38 36 34 29 26 24 22 20 20
48 53 67 75 77 75 76 80 79 72 70 66 63 60 54 54 57 54 52 51 50 52 52 54 56 58 59 61 59 56 23 16 20 21 43 41 37 33 30 27 24 23 22
34 42 50 64 72 73 73 76 75 72 67 59 58 58 59 59 58 56 55 55 54 53 51 53 54 55 56 57 59 58 29 16 15 12 16 43 43 37 32 28 27 26 24
17 26 37 49 59 67 69 71 72 70 67 61 59 60 62 61 58 58 58 59 55 54 54 54 50 52 53 53 56 50 47 27 21 23 21 20 39 37 34 31 29 28 27
Wind_Direction_500mb
179 179 173 171 161 166 172 173 174 175 184 199 199 191 188 164 152 154 154 152 163 176 190 199 213 230 244 231 223 223 244 242 248 231 218 66 56 64 72 68 71 72 73
178 181 178 180 176 169 172 174 180 182 187 195 196 189 192 185 179 185 189 188 184 187 217 239 257 263 280 263 270 256 234 225 231 231 238 269 351 317 335 356 10 48 71
180 184 184 191 187 186 187 191 190 194 204 211 215 215 210 206 211 232 231 231 234 242 253 265 274 298 285 273 265 250 246 228 244 227 229 226 349 349 282 325 333 295 257
184 186 188 195 193 195 198 202 206 214 220 231 237 237 234 236 246 253 249 247 249 253 263 275 284 286 279 281 276 266 275 225 228 217 219 203 283 297 286 295 266 208 223
188 189 191 194 199 203 207 209 215 222 230 242 252 251 245 246 254 256 250 246 250 256 267 273 271 276 286 299 301 303 246 182 170 191 192 193 240 283 303 248 191 169 93
196 199 200 202 203 212 213 214 219 226 237 247 256 255 252 250 251 250 248 248 253 258 255 254 262 276 287 324 11 71 101 121 161 166 187 197 228 244 125 118 122 117 97
199 206 208 207 205 213 220 219 223 229 240 252 258 257 253 250 250 251 250 253 251 253 254 262 278 286 294 302 90 130 149 145 163 155 143 114 132 123 122 116 120 135 134
210 213 221 222 217 217 219 220 228 235 244 251 255 254 252 251 252 253 250 246 244 247 259 272 286 284 287 94 122 142 142 158 167 166 129 126 121 124 120 111 107 114 129
211 216 218 225 222 218 223 226 232 238 245 249 251 252 251 253 251 249 248 243 249 256 270 278 280 280 145 145 143 152 165 166 172 162 139 127 124 117 111 100 89 116 123
216 219 221 221 241 231 230 237 239 238 241 246 250 252 251 248 247 244 245 250 253 262 265 268 276 260 178 150 146 155 166 152 151 144 139 123 121 105 101 95 96 88 90
217 218 221 224 229 240 242 240 237 238 240 244 248 250 248 244 242 244 244 247 254 247 260 269 266 213 148 153 152 164 166 153 147 154 127 116 117 99 94 88 97 91 93
223 227 227 231 235 241 241 243 235 238 242 243 243 242 241 241 241 241 241 248 237 239 238 266 160 142 141 160 165 161 151 153 150 142 121 111 107 110 104 102 94 92 100
238 236 237 236 234 238 237 234 235 238 241 245 242 238 236 238 239 238 236 235 235 244 244 209 156 145 155 168 169 167 163 153 140 129 116 102 100 87 90 94 94 98 101
239 242 242 240 239 241 240 238 239 236 238 238 240 238 235 232 235 233 231 226 232 234 212 176 163 157 164 169 167 168 169 176 169 152 116 71 62 96 111 102 100 104 101
247 246 242 242 242 238 233 231 232 235 237 236 233 233 233 230 230 232 230 226 226 220 202 180 170 164 173 178 173 175 174 165 156 151 154 164 108 104 106 105 105 100 105
247 245 241 239 236 234 230 235 231 234 236 241 241 236 232 230 228 228 228 228 224 216 196 184 174 174 177 177 183 180 179 166 169 169 179 169 142 119 116 114 116 112 103
247 245 243 238 235 233 233 235 235 237 240 233 237 237 234 234 231 229 230 228 223 210 195 187 173 178 184 185 181 177 169 166 176 185 182 178 187 162 134 131 123 113 105
245 245 246 240 237 234 233 235 234 237 249 246 243 238 236 235 233 229 230 227 222 209 196 186 179 178 186 185 184 188 173 172 179 204 218 218 222 208 174 131 135 129 125
246 246 245 243 241 237 237 238 241 245 243 224 235 239 239 237 233 230 228 228 222 209 195 190 185 187 187 180 180 180 186 192 204 216 232 224 218 218 222 210 171 151 139
247 247 244 243 242 236 239 238 238 239 238 230 231 238 237 239 233 229 225 225 219 208 197 192 191 191 194 200 200 198 205 216 224 233 237 226 214 211 212 197 185 195 201
246 243 241 237 239 236 232 233 231 233 226 227 237 244 245 240 234 228 225 223 218 213 204 197 193 201 196 203 209 207 210 217 225 229 224 211 208 208 203 198 207 218 233
251 246 240 238 237 237 234 233 233 237 235 233 236 233 241 238 232 228 226 225 220 213 209 205 204 200 200 201 204 209 206 218 221 215 211 208 208 207 206 210 218 226 234
248 245 241 239 237 235 234 227 231 239 238 235 231 222 229 232 233 228 228 226 223 220 217 212 210 212 208 203 207 201 192 211 209 214 213 212 212 210 214 219 225 229 235
246 244 241 238 237 235 233 229 235 244 241 241 235 231 235 230 232 231 226 227 224 223 220 219 216 216 220 216 205 206 203 189 187 206 216 216 217 217 219 223 228 232 238
237 242 243 238 236 234 235 235 239 246 241 243 238 230 230 230 228 227 227 225 222 221 221 220 218 216 218 220 214 206 209 207 210 213 219 220 222 221 224 228 233 238 244
221 230 237 238 236 236 236 238 240 241 241 242 238 232 230 229 229 228 226 225 223 223 220 221 220 222 220 219 220 220 226 232 242 239 239 238 228 228 228 233 236 243 250
Wind_Speed_850mb
47 47 39 39 36 31 26 26 27 25 24 22 19 19 19 15 17 18 19 21 15 12 14 14 15 13 9 4 3 6 7 8 7 5 3 1 5 7 9 10 10 11 11
53 51 43 41 43 39 35 34 33 30 27 22 17 20 21 15 12 13 15 19 22 20 16 11 14 12 12 15 14 11 12 13 13 10 8 4 6 7 5 4 3 4 5
54 51 47 44 40 37 38 35 30 27 24 24 22 21 20 21 16 16 20 25 26 28 28 25 24 20 19 19 17 15 17 18 15 12 9 5 3 3 6 7 4 4 2
57 54 47 42 40 39 38 34 30 28 26 27 26 25 27 29 27 24 26 29 31 29 29 26 25 26 22 23 13 9 9 14 9 12 10 5 5 8 12 12 8 3 10
57 51 48 46 42 35 38 37 33 30 27 26 27 30 35 35 33 31 28 27 28 27 24 23 23 24 24 19 18 12 2 6 10 10 10 7 8 14 16 3 12 12 7
55 52 50 44 42 37 41 39 36 32 29 27 28 29 31 34 34 31 28 26 24 23 22 22 24 21 21 9 8 8 10 9 11 9 5 8 9 9 11 22 22 20 12
41 50 53 50 40 36 37 37 37 35 31 29 29 30 29 30 30 29 26 24 21 22 22 24 21 23 25 11 2 14 8 12 13 9 8 7 13 28 33 32 31 21 10
36 40 42 49 52 44 41 35 39 36 35 33 31 32 31 30 29 27 24 21 20 19 23 23 27 28 21 4 5 17 16 19 18 13 14 23 32 32 29 25 21 18 17
33 36 33 35 46 52 49 50 47 40 38 35 33 32 31 30 28 24 21 19 20 24 27 27 29 21 7 15 20 21 18 19 16 14 27 38 31 30 26 27 18 19 16
35 33 36 34 32 46 52 53 52 44 41 37 34 32 30 29 27 24 25 25 25 24 25 26 25 12 15 22 24 25 23 20 23 30 38 34 33 28 29 29 21 29 34
41 40 39 39 37 37 43 47 45 46 43 39 34 32 29 29 27 26 26 27 22 21 21 23 16 7 21 28 31 24 28 30 36 37 37 35 27 34 33 27 20 24 28
47 42 42 41 35 36 36 38 42 45 45 40 35 32 31 30 29 27 26 26 24 20 19 19 14 19 26 31 30 33 33 38 44 37 29 26 25 24 16 29 32 29 31
48 47 48 43 40 41 37 36 40 47 46 42 37 34 32 30 28 27 25 24 25 23 15 10 22 27 31 34 35 37 35 42 41 42 34 28 20 23 31 32 35 35 35
55 54 51 45 43 44 40 39 45 51 47 43 38 36 32 30 28 26 24 25 25 17 13 20 25 26 33 38 41 36 34 34 32 25 27 17 12 32 27 31 33 32 33
58 57 55 50 46 44 41 41 43 48 46 41 39 35 33 30 28 26 26 26 25 21 20 26 30 37 36 38 40 36 36 29 26 20 17 9 19 24 26 23 28 28 29
60 58 55 54 51 48 46 46 42 45 47 39 34 33 33 32 30 29 29 28 27 25 28 32 31 40 41 42 39 37 35 41 33 27 16 14 15 13 22 21 19 24 25
63 59 58 57 54 53 52 50 50 47 48 44 37 35 36 36 33 32 31 30 30 30 34 37 42 44 44 43 46 42 43 36 29 26 18 15 17 19 25 21 18 21 22
66 63 58 58 59 60 57 53 48 48 42 42 38 39 36 37 37 35 33 32 31 33 39 45 48 49 48 48 48 44 43 36 28 25 21 21 23 22 25 22 20 21 19
67 66 63 62 64 64 61 55 50 48 49 41 43 41 37 40 40 38 35 35 33 35 42 52 54 53 51 53 51 46 37 28 23 28 24 23 25 24 19 14 18 22 18
68 69 66 67 66 67 65 61 55 52 51 46 47 50 42 46 42 40 40 40 37 39 46 54 58 57 55 52 47 40 35 35 35 32 30 29 28 24 20 15 15 12 11
65 69 72 74 73 72 74 72 64 61 48 38 45 44 48 49 45 45 45 44 41 44 48 54 58 58 60 57 51 46 44 40 39 36 34 30 28 26 22 17 16 14 12
67 69 76 77 76 75 75 73 65 57 49 48 48 47 57 53 52 49 50 46 45 47 53 55 59 63 62 62 57 48 28 36 39 37 34 32 31 27 22 20 19 17 15
63 71 75 80 77 75 75 77 70 61 59 56 55 63 66 56 51 52 51 48 47 50 54 56 59 62 66 64 57 33 18 20 39 39 38 36 34 29 26 24 22 20 20
48 53 67 75 77 75 76 80 79 72 70 66 63 60 54 54 57 54 52 51 50 52 52 54 56 58 59 61 59 56 23 16 20 21 43 41 37 33 30 27 24 23 22
34 42 50 64 72 73 73 76 75 72 67 59 58 58 59 59 58 56 55 55 54 53 51 53 54 55 56 57 59 58 29 16 15 12 16 43 43 37 32 28 27 26 24
17 26 37 49 59 67 69 71 72 70 67 61 59 60 62 61 58 58 58 59 55 54 54 54 50 52 53 53 56 50 47 27 21 23 21 20 39 37 34 31 29 28 27
Wind_Direction_850mb
179 179 173 171 161 166 172 173 174 175 184 199 199 191 188 164 152 154 154 152 163 176 190 199 213 230 244 231 223 223 244 242 248 231 218 66 56 64 72 68 71 72 73
178 181 178 180 176 169 172 174 180 182 187 195 196 189 192 185 179 185 189 188 184 187 217 239 257 263 280 263 270 256 234 225 231 231 238 269 351 317 335 356 10 48 71
180 184 184 191 187 186 187 191 190 194 204 211 215 215 210 206 211 232 231 231 234 242 253 265 274 298 285 273 265 250 246 228 244 227 229 226 349 349 282 325 333 295 257
184 186 188 195 193 195 198 202 206 214 220 231 237 237 234 236 246 253 249 247 249 253 263 275 284 286 279 281 276 266 275 225 228 217 219 203 283 297 286 295 266 208 223
188 189 191 194 199 203 207 209 215 222 230 242 252 251 245 246 254 256 250 246 250 256 267 273 271 276 286 299 301 303 246 182 170 191 192 193 240 283 303 248 191 169 93
196 199 200 202 203 212 213 214 219 226 237 247 256 255 252 250 251 250 248 248 253 258 255 254 262 276 287 324 11 71 101 121 161 166 187 197 228 244 125 118 122 117 97
199 206 208 207 205 213 220 219 223 229 240 252 258 257 253 250 250 251 250 253 251 253 254 262 278 286 294 302 90 130 149 145 163 155 143 114 132 123 122 116 120 135 134
210 213 221 222 217 217 219 220 228 235 244 251 255 254 252 251 252 253 250 246 244 247 259 272 286 284 287 94 122 142 142 158 167 166 129 126 121 124 120 111 107 114 129
211 216 218 225 222 218 223 226 232 238 245 249 251 252 251 253 251 249 248 243 249 256 270 278 280 280 145 145 143 152 165 166 172 162 139 127 124 117 111 100 89 116 123
216 219 221 221 241 231 230 237 239 238 241 246 250 252 251 248 247 244 245 250 253 262 265 268 276 260 178 150 146 155 166 152 151 144 139 123 121 105 101 95 96 88 90
217 218 221 224 229 240 242 240 237 238 240 244 248 250 248 244 242 244 244 247 254 247 260 269 266 213 148 153 152 164 166 153 147 154 127 116 117 99 94 88 97 91 93
223 227 227 231 235 241 241 243 235 238 242 243 243 242 241 241 241 241 241 248 237 239 238 266 160 142 141 160 165 161 151 153 150 142 121 111 107 110 104 102 94 92 100
238 236 237 236 234 238 237 234 235 238 241 245 242 238 236 238 239 238 236 235 235 244 244 209 156 145 155 168 169 167 163 153 140 129 116 102 100 87 90 94 94 98 101
239 242 242 240 239 241 240 238 239 236 238 238 240 238 235 232 235 233 231 226 232 234 212 176 163 157 164 169 167 168 169 176 169 152 116 71 62 96 111 102 100 104 101
247 246 242 242 242 238 233 231 232 235 237 236 233 233 233 230 230 232 230 226 226 220 202 180 170 164 173 178 173 175 174 165 156 151 154 164 108 104 106 105 105 100 105
247 245 241 239 236 234 230 235 231 234 236 241 241 236 232 230 228 228 228 228 224 216 196 184 174 174 177 177 183 180 179 166 169 169 179 169 142 119 116 114 116 112 103
247 245 243 238 235 233 233 235 235 237 240 233 237 237 234 234 231 229 230 228 223 210 195 187 173 178 184 185 181 177 169 166 176 185 182 178 187 162 134 131 123 113 105
245 245 246 240 237 234 233 235 234 237 249 246 243 238 236 235 233 229 230 227 222 209 196 186 179 178 186 185 184 188 173 172 179 204 218 218 222 208 174 131 135 129 125
246 246 245 243 241 237 237 238 241 245 243 224 235 239 239 237 233 230 228 228 222 209 195 190 185 187 187 180 180 180 186 192 204 216 232 224 218 218 222 210 171 151 139
247 247 244 243 242 236 239 238 238 239 238 230 231 238 237 239 233 229 225 225 219 208 197 192 191 191 194 200 200 198 205 216 224 233 237 226 214 211 212 197 185 195 201
246 243 241 237 239 236 232 233 231 233 226 227 237 244 245 240 234 228 225 223 218 213 204 197 193 201 196 203 209 207 210 217 225 229 224 211 208 208 203 198 207 218 233
251 246 240 238 237 237 234 233 233 237 235 233 236 233 241 238 232 228 226 225 220 213 209 205 204 200 200 201 204 209 206 218 221 215 211 208 208 207 206 210 218 226 234
248 245 241 239 237 235 234 227 231 239 238 235 231 222 229 232 233 228 228 226 223 220 217 212 210 212 208 203 207 201 192 211 209 214 213 212 212 210 214 219 225 229 235
246 244 241 238 237 235 233 229 235 244 241 241 235 231 235 230 232 231 226 227 224 223 220 219 216 216 220 216 205 206 203 189 187 206 216 216 217 217 219 223 228 232 238
237 242 243 238 236 234 235 235 239 246 241 243 238 230 230 230 228 227 227 225 222 221 221 220 218 216 218 220 214 206 209 207 210 213 219 220 222 221 224 228 233 238 244
221 230 237 238 236 236 236 238 240 241 241 242 238 232 230 229 229 228 226 225 223 223 220 221 220 222 220 219 220 220 226 232 242 239 239 238 228 228 228 233 236 243 250